Time,TemperatureF,DewpointF,PressureIn,WindDirection,WindDirectionDegrees,WindSpeedMPH,WindSpeedGustMPH,Humidity,HourlyPrecipIn,Conditions,Clouds,dailyrainin,SoftwareType,DateUTC
2013-07-06 00:02:00,53.0,-99.9,29.78,NW,309,11.0,16.0,-999,-99.99,,,-99.99,,2013-07-06 07:02:00,
2013-07-06 00:12:00,53.0,-99.9,29.78,WNW,294,10.0,16.0,-999,-99.99,,,-99.99,,2013-07-06 07:12:00,
2013-07-06 00:33:00,53.0,-99.9,29.78,WNW,299,10.0,14.0,-999,-99.99,,,-99.99,,2013-07-06 07:33:00,
2013-07-06 00:44:00,53.0,-99.9,29.78,WNW,299,10.0,15.0,-999,-99.99,,,-99.99,,2013-07-06 07:44:00,
2013-07-06 00:52:00,53.0,-99.9,29.78,WNW,301,9.0,13.0,-999,-99.99,,,-99.99,,2013-07-06 07:52:00,
2013-07-06 01:02:00,53.0,-99.9,29.77,WNW,300,11.0,13.0,-999,-99.99,,,-99.99,,2013-07-06 08:02:00,
2013-07-06 01:12:00,53.0,-99.9,29.77,WNW,291,9.0,13.0,-999,-99.99,,,-99.99,,2013-07-06 08:12:00,
2013-07-06 01:34:00,53.0,-99.9,29.77,WNW,295,9.0,13.0,-999,-99.99,,,-99.99,,2013-07-06 08:34:00,
2013-07-06 01:43:00,53.0,-99.9,29.77,WNW,287,8.0,11.0,-999,-99.99,,,-99.99,,2013-07-06 08:43:00,
2013-07-06 01:54:00,53.0,-99.9,29.77,WNW,289,8.0,10.0,-999,-99.99,,,-99.99,,2013-07-06 08:54:00,
2013-07-06 02:02:00,53.0,-99.9,29.77,WNW,292,9.0,13.0,-999,-99.99,,,-99.99,,2013-07-06 09:02:00,
2013-07-06 02:11:00,53.0,-99.9,29.77,WNW,290,9.0,10.0,-999,-99.99,,,-99.99,,2013-07-06 09:11:00,
2013-07-06 02:34:00,53.0,-99.9,29.76,WNW,283,9.0,12.0,-999,-99.99,,,-99.99,,2013-07-06 09:34:00,
2013-07-06 02:43:00,52.0,-99.9,29.76,WNW,283,9.0,12.0,-999,-99.99,,,-99.99,,2013-07-06 09:43:00,
2013-07-06 02:53:00,52.0,-99.9,29.76,WNW,303,8.0,13.0,-999,-99.99,,,-99.99,,2013-07-06 09:53:00,
2013-07-06 03:02:00,52.0,-99.9,29.76,WNW,302,9.0,12.0,-999,-99.99,,,-99.99,,2013-07-06 10:02:00,
2013-07-06 03:12:00,52.0,-99.9,29.76,WNW,295,8.0,10.0,-999,-99.99,,,-99.99,,2013-07-06 10:12:00,
2013-07-06 03:22:00,52.0,-99.9,29.76,WNW,295,8.0,10.0,-999,-99.99,,,-99.99,,2013-07-06 10:22:00,
2013-07-06 03:33:00,52.0,-99.9,29.76,NW,315,5.0,6.0,-999,-99.99,,,-99.99,,2013-07-06 10:33:00,
2013-07-06 03:43:00,52.0,-99.9,29.76,NNW,335,2.0,5.0,-999,-99.99,,,-99.99,,2013-07-06 10:43:00,
2013-07-06 03:53:00,52.0,-99.9,29.76,North,2,2.0,3.0,-999,-99.99,,,-99.99,,2013-07-06 10:53:00,
2013-07-06 04:01:00,52.0,-99.9,29.77,NE,40,1.0,1.0,-999,-99.99,,,-99.99,,2013-07-06 11:01:00,
2013-07-06 04:11:00,52.0,-99.9,29.77,North,6,3.0,4.0,-999,-99.99,,,-99.99,,2013-07-06 11:11:00,
2013-07-06 04:33:00,52.0,-99.9,29.77,NE,38,2.0,3.0,-999,-99.99,,,-99.99,,2013-07-06 11:33:00,
2013-07-06 04:43:00,52.0,-99.9,29.77,NE,35,3.0,6.0,-999,-99.99,,,-99.99,,2013-07-06 11:43:00,
2013-07-06 04:53:00,52.0,-99.9,29.77,East,100,0.0,4.0,-999,-99.99,,,-99.99,,2013-07-06 11:53:00,
2013-07-06 05:01:00,52.0,-99.9,29.77,East,81,2.0,2.0,-999,-99.99,,,-99.99,,2013-07-06 12:01:00,
2013-07-06 05:12:00,52.0,-99.9,29.77,SE,140,1.0,2.0,-999,-99.99,,,-99.99,,2013-07-06 12:12:00,
2013-07-06 05:33:00,52.0,-99.9,29.77,SE,129,2.0,4.0,-999,-99.99,,,-99.99,,2013-07-06 12:33:00,
2013-07-06 05:43:00,52.0,-99.9,29.78,SE,134,3.0,4.0,-999,-99.99,,,-99.99,,2013-07-06 12:43:00,
2013-07-06 05:52:00,52.0,-99.9,29.78,SE,131,3.0,5.0,-999,-99.99,,,-99.99,,2013-07-06 12:52:00,
2013-07-06 06:01:00,52.0,-99.9,29.78,SE,131,3.0,5.0,-999,-99.99,,,-99.99,,2013-07-06 13:01:00,
2013-07-06 07:02:00,52.0,-99.9,29.78,SE,141,4.0,7.0,-999,-99.99,,,-99.99,,2013-07-06 14:02:00,
2013-07-06 07:22:00,52.0,-99.9,29.78,ESE,122,5.0,7.0,-999,-99.99,,,-99.99,,2013-07-06 14:22:00,
2013-07-06 07:43:00,51.0,-99.9,29.78,ESE,105,8.0,10.0,-999,-99.99,,,-99.99,,2013-07-06 14:43:00,
2013-07-06 07:53:00,51.0,-99.9,29.78,ESE,107,11.0,13.0,-999,-99.99,,,-99.99,,2013-07-06 14:53:00,
2013-07-06 08:02:00,51.0,-99.9,29.79,ESE,102,11.0,14.0,-999,-99.99,,,-99.99,,2013-07-06 15:02:00,
2013-07-06 08:12:00,51.0,-99.9,29.79,ESE,102,9.0,14.0,-999,-99.99,,,-99.99,,2013-07-06 15:12:00,
2013-07-06 08:34:00,51.0,-99.9,29.80,ESE,103,11.0,15.0,-999,-99.99,,,-99.99,,2013-07-06 15:34:00,
2013-07-06 08:43:00,51.0,-99.9,29.80,ESE,110,10.0,14.0,-999,-99.99,,,-99.99,,2013-07-06 15:43:00,
2013-07-06 08:53:00,51.0,-99.9,29.81,ESE,123,7.0,12.0,-999,-99.99,,,-99.99,,2013-07-06 15:53:00,
2013-07-06 09:09:00,52.0,-99.9,29.81,East,97,8.0,11.0,-999,-99.99,,,-99.99,,2013-07-06 16:09:00,
2013-07-06 09:50:00,52.0,-99.9,29.82,East,98,11.0,15.0,-999,-99.99,,,-99.99,,2013-07-06 16:50:00,
2013-07-06 10:02:00,52.0,-99.9,29.82,East,92,9.0,12.0,-999,-99.99,,,-99.99,,2013-07-06 17:02:00,
2013-07-06 10:12:00,52.0,-99.9,29.82,East,94,10.0,11.0,-999,-99.99,,,-99.99,,2013-07-06 17:12:00,
2013-07-06 10:27:00,52.0,-99.9,29.82,East,95,9.0,12.0,-999,-99.99,,,-99.99,,2013-07-06 17:27:00,
2013-07-06 10:45:00,52.0,-99.9,29.83,East,93,9.0,12.0,-999,-99.99,,,-99.99,,2013-07-06 17:45:00,
2013-07-06 11:10:00,52.0,-99.9,29.83,East,98,10.0,13.0,-999,-99.99,,,-99.99,,2013-07-06 18:10:00,
2013-07-06 11:16:00,52.0,-99.9,29.83,East,95,9.0,11.0,-999,-99.99,,,-99.99,,2013-07-06 18:16:00,
2013-07-06 11:28:00,52.0,-99.9,29.83,East,100,9.0,13.0,-999,-99.99,,,-99.99,,2013-07-06 18:28:00,
2013-07-06 11:51:00,53.0,-99.9,29.83,ESE,113,10.0,13.0,-999,-99.99,,,-99.99,,2013-07-06 18:51:00,
2013-07-06 12:11:00,53.0,-99.9,29.83,ESE,123,10.0,17.0,-999,-99.99,,,-99.99,,2013-07-06 19:11:00,
2013-07-06 13:27:00,53.0,-99.9,29.83,SE,141,9.0,14.0,-999,-99.99,,,-99.99,,2013-07-06 20:27:00,
2013-07-06 14:02:00,53.0,-99.9,29.83,SE,133,9.0,12.0,-999,-99.99,,,-99.99,,2013-07-06 21:02:00,
2013-07-06 14:12:00,53.0,-99.9,29.83,SE,138,9.0,12.0,-999,-99.99,,,-99.99,,2013-07-06 21:12:00,
2013-07-06 14:50:00,53.0,-99.9,29.83,ESE,120,10.0,15.0,-999,-99.99,,,-99.99,,2013-07-06 21:50:00,
2013-07-06 15:01:00,53.0,-99.9,29.83,ESE,123,10.0,14.0,-999,-99.99,,,-99.99,,2013-07-06 22:01:00,
2013-07-06 15:27:00,53.0,-99.9,29.83,SE,142,8.0,10.0,-999,-99.99,,,-99.99,,2013-07-06 22:27:00,
2013-07-06 15:50:00,53.0,-99.9,29.82,SE,127,3.0,7.0,-999,-99.99,,,-99.99,,2013-07-06 22:50:00,
2013-07-06 16:02:00,53.0,-99.9,29.82,SE,144,4.0,7.0,-999,-99.99,,,-99.99,,2013-07-06 23:02:00,
2013-07-06 16:09:00,53.0,-99.9,29.82,SE,129,5.0,7.0,-999,-99.99,,,-99.99,,2013-07-06 23:09:00,
2013-07-06 16:15:00,53.0,-99.9,29.82,SE,137,4.0,6.0,-999,-99.99,,,-99.99,,2013-07-06 23:15:00,
2013-07-06 17:13:00,54.0,-99.9,29.81,SSW,203,4.0,6.0,-999,-99.99,,,-99.99,,2013-07-07 00:13:00,
2013-07-06 17:28:00,54.0,-99.9,29.81,West,271,3.0,7.0,-999,-99.99,,,-99.99,,2013-07-07 00:28:00,
2013-07-06 17:50:00,54.0,-99.9,29.80,West,268,2.0,5.0,-999,-99.99,,,-99.99,,2013-07-07 00:50:00,
2013-07-06 18:17:00,53.0,-99.9,29.80,SE,144,5.0,9.0,-999,-99.99,,,-99.99,,2013-07-07 01:17:00,
2013-07-06 19:01:00,53.0,-99.9,29.79,SE,130,3.0,9.0,-999,-99.99,,,-99.99,,2013-07-07 02:01:00,
2013-07-06 19:11:00,53.0,-99.9,29.79,ESE,112,3.0,10.0,-999,-99.99,,,-99.99,,2013-07-07 02:11:00,
2013-07-06 19:17:00,53.0,-99.9,29.79,SE,129,4.0,9.0,-999,-99.99,,,-99.99,,2013-07-07 02:17:00,
2013-07-06 19:23:00,53.0,-99.9,29.79,SE,125,4.0,9.0,-999,-99.99,,,-99.99,,2013-07-07 02:23:00,
2013-07-06 19:44:00,52.0,-99.9,29.79,SE,135,4.0,9.0,-999,-99.99,,,-99.99,,2013-07-07 02:44:00,
2013-07-06 20:15:00,52.0,-99.9,29.79,ESE,119,7.0,10.0,-999,-99.99,,,-99.99,,2013-07-07 03:15:00,
2013-07-06 20:34:00,52.0,-99.9,29.80,SE,124,3.0,8.0,-999,-99.99,,,-99.99,,2013-07-07 03:34:00,
2013-07-06 20:45:00,52.0,-99.9,29.80,South,169,5.0,7.0,-999,-99.99,,,-99.99,,2013-07-07 03:45:00,
2013-07-06 20:58:00,52.0,-99.9,29.80,SSE,164,3.0,9.0,-999,-99.99,,,-99.99,,2013-07-07 03:58:00,
2013-07-06 21:01:00,52.0,-99.9,29.80,ENE,77,3.0,6.0,-999,-99.99,,,-99.99,,2013-07-07 04:01:00,
2013-07-06 21:11:00,52.0,-99.9,29.80,ESE,104,6.0,9.0,-999,-99.99,,,-99.99,,2013-07-07 04:11:00,
2013-07-06 21:21:00,52.0,-99.9,29.80,ESE,104,6.0,9.0,-999,-99.99,,,-99.99,,2013-07-07 04:21:00,
2013-07-06 21:31:00,52.0,-99.9,29.80,ESE,121,6.0,9.0,-999,-99.99,,,-99.99,,2013-07-07 04:31:00,
2013-07-06 21:42:00,52.0,-99.9,29.80,ESE,106,5.0,8.0,-999,-99.99,,,-99.99,,2013-07-07 04:42:00,
2013-07-06 21:52:00,51.0,-99.9,29.81,SSE,150,5.0,8.0,-999,-99.99,,,-99.99,,2013-07-07 04:52:00,
2013-07-06 22:01:00,51.0,-99.9,29.81,SE,128,4.0,9.0,-999,-99.99,,,-99.99,,2013-07-07 05:01:00,
2013-07-06 22:11:00,51.0,-99.9,29.81,East,100,4.0,5.0,-999,-99.99,,,-99.99,,2013-07-07 05:11:00,
2013-07-06 22:32:00,51.0,-99.9,29.82,ESE,121,5.0,8.0,-999,-99.99,,,-99.99,,2013-07-07 05:32:00,
2013-07-06 22:41:00,52.0,-99.9,29.82,East,98,3.0,7.0,-999,-99.99,,,-99.99,,2013-07-07 05:41:00,
2013-07-06 22:51:00,52.0,-99.9,29.82,ESE,113,2.0,7.0,-999,-99.99,,,-99.99,,2013-07-07 05:51:00,
2013-07-06 23:01:00,52.0,-99.9,29.82,East,101,4.0,6.0,-999,-99.99,,,-99.99,,2013-07-07 06:01:00,
2013-07-06 23:11:00,52.0,-99.9,29.82,SE,141,2.0,7.0,-999,-99.99,,,-99.99,,2013-07-07 06:11:00,
2013-07-06 23:32:00,52.0,-99.9,29.82,ESE,109,4.0,8.0,-999,-99.99,,,-99.99,,2013-07-07 06:32:00,
2013-07-06 23:43:00,51.0,-99.9,29.82,SE,131,8.0,12.0,-999,-99.99,,,-99.99,,2013-07-07 06:43:00,
2013-07-06 23:52:00,51.0,-99.9,29.82,SE,133,7.0,12.0,-999,-99.99,,,-99.99,,2013-07-07 06:52:00,